Location: Assche-ter-Heiden
(50.9174°N, 4.1574°E)
Time: 09:37:42
(UTC+00:00)

NOSS 2-2 (D) - Pass Details

Date: 20 January 2020
Orbit: 485 x 1724 km, 63.3° (Epoch: 03 February)

Event Time Altitude Azimuth Distance (km) Brightness Sun altitude
Exits shadow 05:11:28 35° 184° (S) 831 4.2 -22.2°
Maximum altitude 05:12:43 54° 127° (SE) 640 3.9 -22.0°
Drops below altitude 10° 05:16:47 10° 50° (NE) 1,928 6.7 -21.4°
Sets 05:19:18 0° 46° (NE) 2,981 7.6 -21.0°
